#timestamp,LO_Frequency,Hit,StdDev 
1583614815.2,286046998.7,N
1583614835.1,286047000.0,N
1583614836.0,286047000.0,N
1583614855.8,286047002.8,N
1583614875.6,286047000.5,N
1583614895.5,286046998.2,N
1583614915.3,286047000.2,N
1583614935.2,286047001.1,N
1583614955.9,286047000.5,N
1583614975.7,286047001.1,N
1583614995.6,286046999.0,N
1583615015.4,286046999.2,N
1583615035.3,286046998.3,N
1583615055.1,286046998.9,N
1583615056.0,286046998.9,N
1583615075.8,286046998.4,N
1583615095.7,286046999.6,N
1583615115.5,286046996.9,N
1583615135.3,286046996.8,N
1583615155.2,286046997.1,N
1583615175.0,286046999.2,N
1583615175.9,286046999.2,N
1583615195.8,286046999.2,N
1583615215.6,286046998.5,N
1583615235.4,286047002.2,N
1583615255.3,286047000.3,N
1583615275.1,286047000.7,N
1583615295.9,286046998.4,N
1583615315.7,286046998.7,N
1583615335.5,286046997.1,N
1583615355.4,286046997.7,N
1583615375.2,286046996.7,N
1583615395.0,286046997.4,N
1583615395.9,286046997.4,N
1583615415.8,286046996.7,N
1583615435.6,286046996.6,N
1583615455.5,286046996.5,N
1583615475.3,286046996.5,N
1583615495.1,286046996.8,N
1583615515.9,286046998.5,N
1583615535.7,286047000.9,N
1583615555.6,286047000.7,N
1583615575.4,286047001.9,N
1583615595.2,286047001.9,N
1583615615.1,286047002.5,N
1583615616.0,286047002.5,N
1583615635.8,286047000.1,N
1583615655.6,286047000.0,N
1583615675.5,286047001.0,N
1583615695.3,286046999.2,N
1583615715.2,286046998.4,N
1583615735.9,286046999.5,N
1583615755.7,286046996.5,N
1583615775.6,286046997.1,N
1583615795.4,286046997.3,N
1583615815.2,286046997.5,N
1583615835.1,286046999.2,N
1583615836.0,286046999.2,N
1583615855.8,286047000.2,N
1583615875.7,286047002.4,N
1583615895.5,286047000.5,N
1583615915.3,286046999.8,N
1583615935.2,286047000.2,N
1583615955.0,286047000.0,N
1583615955.9,286047000.0,N
1583615975.8,286047000.8,N
1583615995.6,286047000.9,N
1583616015.4,286046996.9,N
1583616035.3,286046999.6,N
1583616055.1,286046998.7,N
1583616075.8,286046998.5,N
1583616095.7,286046998.1,N
1583616115.5,286047001.0,N
1583616135.4,286047001.0,N
1583616155.2,286047000.9,N
1583616175.0,286047002.1,N
1583616175.9,286047002.1,N
1583616195.8,286047002.6,N
1583616215.6,286047004.1,N
1583616235.5,286047003.0,N
1583616255.3,286047002.9,N
1583616275.1,286047003.3,N
1583616295.9,286047002.9,N
1583616315.7,286047003.0,N
1583616335.6,286047003.5,N
1583616355.4,286047004.1,N
1583616375.2,286047002.7,N
1583616395.1,286046999.9,N
1583616396.0,286046999.9,N
1583616415.8,286047000.4,N
1583616435.6,286046998.1,N
1583616455.5,286046998.6,N
1583616475.3,286046998.2,N
1583616495.2,286046999.3,N
1583616515.9,286046999.2,N
1583616535.7,286046999.5,N
1583616555.6,286046998.5,N
1583616575.4,286047001.5,N
1583616595.2,286047002.5,N
1583616615.1,286047004.1,N
1583616616.0,286047004.1,N
1583616635.8,286047003.7,N
1583616655.7,286047004.4,N
1583616675.5,286047004.3,N
1583616695.3,286047001.6,N
1583616715.2,286047001.6,N
1583616735.0,286047001.2,N
1583616735.9,286047001.2,N
1583616755.8,286046998.3,N
1583616775.6,286046999.4,N
1583616795.4,286046998.3,N
1583616815.3,286046998.2,N
1583616835.1,286046996.6,N
1583616855.8,286046997.7,N
1583616875.7,286046999.6,N
1583616895.5,286046996.8,N
1583616915.4,286047000.9,N
1583616935.2,286047000.9,N
1583616955.0,286047002.3,N
1583616955.9,286047002.3,N
1583616975.8,286047004.3,N
1583616995.6,286047001.4,N
1583617015.5,286047002.1,N
1583617035.3,286047002.7,N
1583617055.1,286047000.2,N
1583617075.9,286046998.1,N
1583617095.7,286046999.3,N
1583617115.5,286046996.5,N
1583617135.4,286046999.4,N
1583617155.2,286046997.8,N
1583617175.1,286046997.3,N
1583617176.0,286046997.3,N
1583617195.8,286046996.7,N
1583617215.6,286046998.0,N
1583617235.5,286046997.5,N
1583617255.3,286046998.7,N
1583617275.2,286046998.4,N
1583617295.9,286047000.8,N
1583617315.7,286046999.9,N
1583617335.6,286046999.8,N
1583617355.4,286047002.2,N
1583617375.2,286047002.0,N
1583617395.1,286047002.8,N
1583617396.0,286047002.8,N
1583617415.8,286047000.4,N
1583617435.7,286047001.1,N
1583617455.5,286046998.5,N
1583617475.3,286046999.0,N
1583617495.2,286047001.1,N
1583617515.0,286046998.6,N
1583617515.9,286046998.6,N
1583617535.8,286047000.6,N
1583617555.6,286047001.4,N
1583617575.4,286047003.3,N
1583617595.3,286047003.2,N
1583617615.1,286047003.0,N
1583617635.9,286047004.6,N
1583617655.7,286047005.0,N
1583617675.5,286047005.2,N
1583617695.4,286047005.4,N
1583617715.2,286047005.3,N
1583617735.0,286047006.0,N
1583617735.9,286047006.0,N
1583617755.8,286047005.8,N
1583617775.6,286047005.5,N
1583617795.5,286047009.0,Y
1583617815.3,286047007.1,P
1583617835.1,286047008.9,P
1583617855.9,286047006.4,N
1583617875.7,286047004.8,N
1583617895.6,286047007.6,Y
1583617915.4,286047000.4,P
1583617935.2,286047001.1,N
1583617955.1,286047002.7,N
1583617956.0,286047002.7,N
1583617975.8,286046999.9,N
1583617995.6,286047000.0,N
1583618015.5,286047004.2,N
1583618035.3,286047004.1,N
1583618055.2,286047001.7,N
1583618075.9,286047002.8,N
1583618095.7,286047002.5,N
1583618115.6,286047001.5,N
1583618135.4,286047002.5,N
1583618155.3,286047002.7,N
1583618175.1,286047002.6,N
1583618176.0,286047002.6,N
1583618195.8,286047002.0,N
1583618215.7,286047003.8,N
1583618235.5,286047005.8,Y
1583618255.3,286047004.2,P
1583618275.2,286047003.0,P
1583618295.0,286047003.1,P
1583618295.9,286047003.1,Y
1583618315.8,286047001.8,P
1583618335.6,286046998.8,N
1583618355.4,286046999.4,N
1583618375.3,286046997.7,N
1583618395.1,286046994.9,N
